Weather History for Northeast Philadelphia, PA

Change the Weather History Date:

Friday, February 14, 2014

  Actual Average Record
Temperature  
Mean Temperature 37 °F -  
Max Temperature 44 °F 41 °F 59 °F (2011)
Min Temperature 30 °F 25 °F 8 °F (2003)
Degree Days  
Heating Degree Days 28    
Moisture  
Dew Point 27 °F    
Average Humidity 69    
Maximum Humidity 89    
Minimum Humidity 45    
Precipitation  
Precipitation 0.04 in - - ()
Sea Level Pressure  
Sea Level Pressure 29.46 in    
Wind  
Wind Speed 16 mph (West)    
Max Wind Speed 26 mph    
Max Gust Speed 37 mph    
Visibility 7 miles    
Events Snow    
Averages and records for this station are not official NWS values.
T = Trace of Precipitation, MM = Missing Value Source: NWS Daily Summary

Daily Weather History Graph

Daily Weather History Graph

Search for Another Location

Airport:

Trip Planner

Search our weather history database for the weather conditions in past years. The results will help you decide how hot, cold, wet, or windy it might be!

Date:

Astronomy

Feb. 14, 2014 Rise Set
Actual Time 6:54 AM EST 5:34 PM EST
Civil Twilight 6:26 AM EST 6:02 PM EST
Nautical Twilight 5:54 AM EST 6:34 PM EST
Astronomical Twilight 5:23 AM EST 7:05 PM EST
Moon 5:36 PM EST (2/14) 6:19 AM EST (2/14)
Length of Visible Light 11h 36m
Length of Day
10h 40m
Full, 100% of the Moon is Illuminated
Feb 14
Full
Feb 14
Full
Feb 22
Last Quarter
Mar 1
New
Mar 8
First Quarter

Hourly Weather History & Observations

Time (EST) Temp. Windchill Dew Point Humidity Pressure Visibility Wind Dir Wind Speed Gust Speed Precip Events Conditions
12:49 AM 33.8 °F 23.2 °F 30.2 °F 87% 29.16 in 1.0 mi NW 17.3 mph 25.3 mph 0.02 in Snow Light Snow
12:54 AM 34.0 °F 23.4 °F 30.9 °F 89% 29.17 in 1.0 mi NW 17.3 mph 25.3 mph 0.02 in Snow Light Snow
1:32 AM 34.0 °F 23.0 °F 30.9 °F 89% 29.19 in 1.8 mi WNW 18.4 mph - 0.01 in Snow Light Snow
1:34 AM 34.0 °F 23.0 °F 30.9 °F 89% 29.19 in 2.0 mi WNW 18.4 mph 25.3 mph 0.01 in Snow Light Snow
1:54 AM 33.1 °F 22.2 °F 30.0 °F 89% 29.20 in 1.5 mi WNW 17.3 mph 24.2 mph 0.01 in Snow Light Snow
2:09 AM 33.1 °F 22.6 °F 30.0 °F 89% 29.21 in 0.8 mi WNW 16.1 mph 29.9 mph 0.00 in Snow Light Snow
2:27 AM 33.1 °F 21.2 °F 30.0 °F 89% 29.21 in 1.2 mi WNW 20.7 mph 26.5 mph 0.01 in Snow Light Snow
2:49 AM 33.8 °F 23.9 °F 30.2 °F 87% 29.22 in 1.8 mi West 15.0 mph 25.3 mph 0.01 in Snow Light Snow
2:54 AM 33.1 °F 21.9 °F 30.0 °F 89% 29.23 in 2.0 mi West 18.4 mph 25.3 mph 0.01 in Snow Light Snow
3:01 AM 33.1 °F 21.9 °F 30.0 °F 89% 29.23 in 3.0 mi West 18.4 mph 25.3 mph 0.00 in Snow Light Snow
3:54 AM 35.1 °F 23.3 °F 28.9 °F 78% 29.25 in 10.0 mi WNW 23.0 mph 31.1 mph 0.00 in   Scattered Clouds
4:54 AM 36.0 °F 23.7 °F 28.9 °F 76% 29.30 in 8.0 mi West 26.5 mph 36.8 mph N/A   Scattered Clouds
5:54 AM 36.0 °F 25.3 °F 28.0 °F 73% 29.35 in 10.0 mi West 19.6 mph 25.3 mph N/A   Scattered Clouds
6:54 AM 35.1 °F 23.5 °F 26.1 °F 70% 29.40 in 10.0 mi West 21.9 mph 31.1 mph N/A   Clear
7:54 AM 34.0 °F 26.6 °F 24.1 °F 67% 29.45 in 10.0 mi WSW 9.2 mph - N/A   Clear
8:54 AM 35.1 °F 25.2 °F 19.9 °F 54% 29.50 in 10.0 mi WSW 16.1 mph - N/A   Clear
9:54 AM 37.0 °F 27.7 °F 21.9 °F 54% 29.52 in 10.0 mi WSW 16.1 mph 24.2 mph N/A   Clear
10:54 AM 39.9 °F 30.8 °F 24.1 °F 53% 29.54 in 10.0 mi West 18.4 mph 27.6 mph N/A   Clear
11:54 AM 42.1 °F 32.6 °F 25.0 °F 51% 29.55 in 10.0 mi West 23.0 mph 29.9 mph N/A   Clear
12:54 PM 42.1 °F 33.3 °F 26.1 °F 53% 29.57 in 10.0 mi West 19.6 mph 29.9 mph N/A   Overcast
1:54 PM 44.1 °F 34.8 °F 25.0 °F 47% 29.58 in 10.0 mi West 25.3 mph 36.8 mph N/A   Partly Cloudy
2:54 PM 43.0 °F 36.8 °F 25.0 °F 49% 29.60 in 10.0 mi West 11.5 mph 21.9 mph N/A   Overcast
3:54 PM 44.1 °F 37.7 °F 24.1 °F 45% 29.63 in 10.0 mi WNW 12.7 mph - N/A   Partly Cloudy
4:54 PM 43.0 °F 37.2 °F 24.1 °F 47% 29.66 in 10.0 mi West 10.4 mph - N/A   Clear
5:54 PM 41.0 °F 36.4 °F 25.0 °F 53% 29.70 in 10.0 mi WSW 6.9 mph - N/A   Clear
6:54 PM 39.9 °F 33.9 °F 25.0 °F 55% 29.76 in 10.0 mi West 9.2 mph - N/A   Clear
7:54 PM 37.9 °F - 25.0 °F 60% 29.78 in 10.0 mi Calm Calm - N/A   Clear
8:54 PM 37.0 °F 34.5 °F 25.0 °F 62% 29.79 in 10.0 mi South 3.5 mph - N/A   Clear
9:54 PM 34.0 °F - 24.1 °F 67% 29.79 in 10.0 mi Calm Calm - N/A   Clear
10:54 PM 30.0 °F - 24.1 °F 79% 29.79 in 8.0 mi Calm Calm - N/A   Partly Cloudy
11:54 PM 33.1 °F - 25.0 °F 72% 29.80 in 9.0 mi Calm Calm - N/A   Overcast